SCP
0 0 0 0 0 0 0 0 0 0 0 0 0 0 0 0 0 0 0 0 0 0 0 0 0 0 0 0 0 0 1 1 1 1 1 1 1 1 1 1 1 0 0 0
0 0 0 0 0 0 0 0 0 0 0 0 0 0 0 0 0 0 0 0 0 0 0 0 0 0 0 0 0 1 1 1 1 1 1 1 1 1 1 1 1 1 1 0
0 0 0 0 0 0 0 0 0 0 0 0 0 0 0 0 0 0 0 0 0 0 0 0 0 0 0 1 1 1 1 1 1 1 1 1 1 1 1 1 1 1 1 1
0 0 0 0 0 0 0 0 0 0 0 0 0 0 0 0 0 0 0 0 0 0 0 0 0 0 0 1 1 1 1 1 1 1 1 1 1 1 1 1 1 1 1 1
0 0 0 0 0 0 0 0 0 0 0 0 0 0 0 0 0 0 0 0 0 0 0 0 0 0 0 1 1 1 1 1 1 1 1 1 1 1 1 1 1 1 1 1
0 0 0 0 0 0 0 0 0 0 0 0 0 0 0 0 0 0 0 0 0 0 0 0 0 0 0 0 0 0 1 1 1 1 1 1 1 1 1 1 1 1 1 1
0 0 0 0 0 0 0 0 0 0 0 0 0 0 0 0 0 0 0 0 0 0 0 0 0 0 0 0 0 0 0 0 0 0 0 0 0 0 0 0 0 1 1 1
0 0 0 0 0 0 0 0 0 0 0 0 0 0 0 0 0 0 0 0 0 0 0 0 0 0 0 0 0 0 0 0 0 0 0 0 0 0 0 0 0 0 0 0
0 0 0 0 0 0 0 0 0 0 0 0 0 0 0 0 0 0 0 0 0 0 0 0 0 0 0 0 0 1 1 1 0 0 0 0 0 0 0 0 0 0 0 0
0 0 0 0 0 0 0 0 0 0 0 0 0 0 0 0 0 0 0 0 0 0 0 0 0 0 0 1 1 1 1 1 1 0 0 0 0 0 0 0 0 0 0 0
0 0 0 0 0 0 0 0 0 0 0 0 0 0 0 0 0 0 0 0 0 0 0 0 0 0 1 1 1 1 1 1 1 1 0 0 0 0 0 0 0 0 0 0
0 0 0 0 0 0 0 0 0 0 0 0 0 0 0 0 0 0 0 0 0 0 0 0 0 0 0 1 1 1 1 1 1 1 0 0 0 0 0 0 0 0 0 0
0 0 0 0 0 0 0 0 0 0 0 0 0 0 0 0 0 0 0 0 0 0 0 0 0 0 0 1 1 1 1 1 1 1 1 0 0 0 0 0 0 0 0 0
0 0 0 0 0 0 0 0 0 0 0 0 0 0 0 0 0 0 0 0 0 0 0 0 0 0 0 1 1 1 1 1 1 1 1 1 0 0 0 0 0 0 0 0
0 0 0 0 0 0 0 0 0 0 0 0 0 0 0 0 0 0 0 0 0 0 0 0 0 0 0 0 1 1 1 1 1 1 1 1 1 1 1 1 0 0 0 0
0 0 0 0 0 0 0 0 0 0 0 0 0 0 0 0 0 0 0 0 0 0 0 0 0 0 0 1 1 1 1 1 1 1 1 1 1 1 1 1 1 0 0 0
0 0 0 0 0 0 0 0 0 0 0 0 0 0 0 0 0 0 0 0 0 0 0 0 0 0 0 1 1 1 1 1 1 1 1 1 1 1 1 1 1 1 0 0
0 0 0 0 0 0 0 0 0 0 0 0 0 0 0 0 0 0 0 0 0 0 0 0 0 0 1 1 1 1 1 1 1 1 1 1 1 1 1 1 1 1 1 1
0 0 0 0 0 0 0 0 0 0 0 0 0 0 0 0 0 0 0 0 0 0 0 0 0 0 1 1 1 1 1 1 1 1 1 1 1 1 1 1 1 1 1 1
0 0 0 0 0 0 0 0 0 0 0 0 0 0 0 0 0 0 0 0 0 0 0 0 0 0 0 0 0 0 0 0 0 0 0 1 1 1 1 1 1 1 1 1
0 0 0 -0 0 0 0 0 0 0 0 0 0 0 0 0 0 0 0 0 0 0 0 0 0 0 0 0 0 0 0 0 0 0 0 0 0 0 0 1 1 1 1 1
0 0 -0 -0 -0 -0 0 0 0 0 0 0 0 0 0 0 0 0 0 0 0 0 0 0 0 0 0 0 0 0 0 0 0 0 0 0 0 0 0 0 0 0 0 1
0 -0 -0 -0 -0 -0 0 0 0 0 0 0 0 0 0 0 0 0 0 0 0 0 0 0 0 0 0 0 0 0 0 0 0 0 0 0 0 0 0 0 0 0 0 0
0 -0 -0 -0 -0 -0 -0 0 0 0 0 0 0 0 0 0 -0 0 0 0 0 0 0 0 0 0 0 0 0 0 0 0 0 0 0 0 0 0 0 0 0 0 0 0
0 0 -0 -0 -0 -0 -0 0 0 0 0 0 0 0 0 0 -0 0 0 0 0 0 0 0 0 0 -0 0 0 0 0 0 0 0 0 0 0 0 0 0 0 0 0 0
0 0 -0 -0 0 0 0 0 0 0 0 0 0 0 0 0 -0 0 0 0 0 0 0 0 0 0 -0 0 0 0 0 0 0 0 0 0 0 0 0 0 0 0 0 0
Wind_Speed
1 4 4 3 4 6 8 9 10 8 5 8 12 13 12 10 8 10 12 13 14 12 8 6 6 5 5 5 6 6 8 10 9 7 7 7 7 6 6 7 9 10 9 9
3 5 3 3 4 7 9 11 11 8 5 8 12 14 13 13 12 12 13 13 14 11 9 9 7 5 3 2 2 4 6 8 9 7 6 5 6 6 7 6 8 10 10 8
7 4 2 5 7 9 11 11 10 9 11 8 9 14 13 13 11 10 10 10 11 11 11 10 8 5 5 4 4 4 5 7 8 8 5 4 4 4 5 6 7 9 10 9
5 4 6 10 11 11 11 4 5 8 10 8 6 12 11 11 12 12 11 9 9 10 11 10 8 6 6 6 5 6 6 6 7 8 8 8 6 6 6 5 6 9 11 12
4 4 6 9 9 8 6 1 2 5 8 12 12 13 10 8 11 10 7 7 9 11 11 10 7 6 6 6 5 6 6 6 6 6 6 6 6 4 3 4 6 7 9 11
8 6 8 9 6 6 5 3 2 4 7 12 11 10 8 5 4 5 4 4 8 11 11 9 7 7 6 6 6 6 6 6 6 5 5 6 5 4 5 5 5 4 4 6
5 5 4 5 6 7 8 6 3 4 6 7 2 6 6 4 5 7 7 2 9 11 11 10 9 8 8 7 7 6 7 7 7 7 6 6 5 5 6 5 5 5 4 4
6 3 2 2 5 5 8 10 8 5 4 3 5 7 2 3 5 5 3 4 9 11 10 9 9 8 8 8 8 7 7 7 6 6 6 5 5 3 3 4 4 4 4 4
7 5 1 3 6 7 6 7 7 10 9 8 7 5 6 2 1 1 2 6 9 10 10 9 8 8 9 10 10 9 8 7 7 6 5 5 5 4 4 4 4 3 3 4
7 10 7 3 5 5 7 5 5 7 7 9 7 8 6 3 2 2 2 4 6 7 8 8 8 9 9 10 10 10 9 8 7 6 5 3 4 4 3 4 4 4 5 5
7 9 8 5 4 5 4 6 8 7 6 7 5 2 2 3 4 4 3 2 1 2 4 5 7 9 10 10 10 11 10 9 8 8 7 6 5 5 5 4 4 5 5 6
4 7 10 8 2 2 4 5 6 8 9 7 6 4 5 3 4 5 5 4 3 3 4 4 5 7 10 11 11 12 12 11 10 9 8 7 5 5 5 5 5 6 6 7
6 7 8 5 4 2 0 1 4 6 6 7 7 5 2 4 6 7 8 8 8 7 6 5 4 6 8 10 11 12 12 11 11 10 9 8 8 7 6 5 5 6 7 7
6 7 8 8 9 7 8 8 8 7 6 8 9 10 10 13 14 15 15 15 13 12 10 8 6 6 7 9 10 11 11 11 11 10 10 9 8 7 7 6 6 7 8 8
6 9 9 9 10 11 12 13 12 12 11 11 13 14 15 16 18 19 19 17 15 14 12 10 8 5 5 8 9 9 10 10 10 10 10 9 8 7 7 6 7 8 8 8
7 10 12 13 11 11 14 13 11 8 6 6 10 11 14 20 19 19 18 15 14 12 10 9 7 4 4 7 8 8 8 8 9 9 8 7 7 7 7 7 8 8 9 9
9 10 12 11 11 13 7 5 6 7 10 9 10 14 20 21 19 15 12 10 10 9 7 5 3 1 3 5 6 6 6 6 7 7 6 7 7 8 8 8 8 9 9 9
9 11 7 8 8 6 5 9 9 5 12 16 14 16 18 20 15 8 11 10 8 6 4 4 5 6 7 7 7 6 5 3 3 3 4 5 6 7 7 8 8 9 8 9
5 6 6 5 6 6 5 12 15 6 6 19 21 21 23 25 5 12 17 13 9 7 7 8 9 9 10 9 8 8 7 6 4 3 3 2 3 5 7 8 8 8 7 8
2 3 4 5 5 1 11 24 23 7 2 21 22 23 23 22 13 13 17 12 10 9 9 9 9 11 11 10 9 10 9 8 8 6 5 4 2 2 5 6 7 6 7 7
11 7 6 6 4 4 14 26 16 5 10 20 20 20 20 16 13 15 12 7 7 8 8 8 9 10 9 9 9 10 9 9 7 7 7 6 5 3 1 3 4 5 6 6
10 8 7 6 6 6 15 17 11 10 16 20 20 20 19 18 16 12 6 3 5 6 6 6 7 8 8 8 8 9 8 7 6 6 7 7 7 5 4 2 1 3 5 6
7 7 5 4 3 5 7 10 12 13 19 21 20 20 19 18 15 11 4 0 2 4 5 5 6 7 6 6 6 7 6 5 5 6 6 6 6 5 5 3 3 3 4 4
6 7 6 6 3 8 9 9 14 16 19 21 20 18 17 17 16 11 4 4 3 3 4 3 4 4 4 4 4 5 4 4 5 6 5 5 6 6 6 4 3 3 3 4
5 7 7 7 9 10 8 14 17 19 20 19 18 17 16 16 15 11 5 5 4 4 4 3 2 1 2 3 4 4 3 3 4 4 4 5 6 6 6 6 5 4 5 4
3 5 5 6 9 11 16 15 18 19 20 19 18 17 16 15 14 12 5 4 5 5 5 4 4 3 2 3 4 3 2 2 4 4 4 4 4 4 4 5 6 10 9 9
Wind_Direction
301 253 258 309 307 289 295 285 275 276 289 283 270 267 264 262 239 245 243 235 227 222 206 195 206 214 227 232 241 230 222 212 203 196 199 196 203 205 207 201 199 192 202 213
253 259 290 293 276 262 260 265 269 275 294 297 281 274 268 262 255 251 253 241 226 211 199 194 191 178 179 175 188 199 197 197 195 195 201 203 197 207 212 209 200 191 186 189
275 292 309 262 252 255 256 259 274 294 309 279 284 273 259 256 249 243 246 250 236 209 204 188 180 163 148 143 152 165 175 182 189 184 181 181 176 191 197 203 198 193 183 176
268 284 266 260 258 256 261 272 294 300 299 287 282 287 277 272 261 246 240 231 220 201 197 180 172 161 144 129 137 147 162 174 179 183 196 204 207 212 217 206 196 195 192 191
278 267 262 264 267 241 247 75 315 296 286 279 264 271 278 270 266 263 255 233 211 193 186 175 166 153 133 123 123 130 145 157 170 193 206 227 234 233 221 211 205 200 195 202
269 264 263 266 267 232 186 163 260 263 266 261 261 268 282 279 302 318 324 234 196 183 177 168 158 158 145 132 130 135 141 139 155 178 197 212 208 209 204 209 212 205 199 208
281 228 215 246 241 208 217 227 240 227 224 249 235 258 275 330 335 318 311 234 177 175 173 173 175 177 168 160 155 155 153 151 162 177 186 195 198 218 220 212 210 209 206 208
293 280 135 215 253 253 229 236 244 261 247 225 205 247 276 351 315 311 305 177 169 176 183 185 186 185 182 177 175 175 170 165 168 188 187 195 188 211 225 220 215 206 211 210
299 293 302 293 286 269 233 227 264 272 271 269 252 251 280 276 322 30 96 159 179 190 197 200 197 195 191 188 187 185 181 177 180 189 186 196 187 195 201 209 208 198 204 198
304 292 293 311 255 223 281 280 225 243 257 254 248 246 249 263 27 56 115 165 194 212 219 214 208 208 203 198 192 187 187 183 182 190 193 194 195 183 189 196 196 196 196 191
294 284 281 270 280 305 266 244 252 258 267 270 270 224 41 15 19 12 22 47 17 287 266 250 227 218 211 203 194 189 186 187 185 190 192 195 191 187 188 192 190 192 190 186
308 291 282 282 351 320 285 304 285 268 262 267 278 273 67 8 1 6 9 23 18 356 338 307 267 236 217 209 201 195 190 184 186 189 191 200 190 190 201 193 191 190 189 192
317 287 288 262 168 156 257 30 325 312 285 257 251 259 69 346 329 332 331 329 326 321 318 306 276 250 227 213 204 195 191 185 180 184 190 196 197 200 209 204 193 196 192 194
296 280 278 287 318 324 308 302 299 293 282 278 272 292 307 314 316 314 309 304 302 301 302 301 290 262 232 214 204 195 188 186 181 185 192 203 206 204 210 208 202 204 200 198
316 299 311 306 303 299 296 293 287 278 274 281 299 307 313 323 318 306 296 290 288 285 287 291 292 278 226 206 199 191 187 188 187 192 201 207 210 208 211 206 208 209 208 208
318 297 303 298 300 304 292 288 287 284 293 300 311 313 335 322 309 298 289 282 279 279 284 294 297 279 218 195 186 180 185 188 194 204 214 212 217 211 214 212 211 209 207 212
292 289 294 292 304 298 283 19 23 67 58 26 357 337 327 322 318 316 312 297 288 291 300 314 330 44 155 158 158 164 176 180 201 212 218 215 216 216 217 213 211 209 208 208
279 286 274 278 286 262 69 50 17 93 72 29 2 346 338 328 318 16 4 341 330 344 5 49 76 89 100 106 112 116 129 157 197 232 239 230 224 221 217 214 212 211 209 203
261 290 284 274 269 257 78 17 345 302 69 20 358 349 347 338 340 50 22 10 15 36 61 73 80 87 85 85 92 97 91 81 64 27 343 295 245 230 219 216 215 211 208 205
342 277 301 306 282 328 19 341 321 271 53 5 352 349 348 348 1 5 1 11 41 57 68 78 81 81 79 79 83 84 78 68 54 37 25 18 358 252 231 226 219 206 206 208
354 1 5 348 313 46 6 339 346 52 350 333 339 342 343 344 332 322 336 17 47 57 62 74 80 77 77 80 81 77 69 58 45 37 37 37 33 18 311 246 218 200 199 200
357 2 11 357 346 350 346 343 359 336 318 324 330 333 334 332 330 334 345 33 55 65 66 74 84 83 79 78 80 77 67 55 47 44 45 44 37 32 34 44 133 179 183 184
10 6 341 331 306 283 300 307 309 315 316 318 320 322 327 329 332 331 313 141 80 75 79 83 94 93 87 73 62 65 62 43 39 44 45 44 48 48 45 60 98 126 153 161
353 354 329 318 303 315 315 326 322 321 315 312 311 315 323 328 330 325 273 204 165 126 110 118 127 113 89 66 46 37 39 24 24 36 33 29 33 46 54 56 75 110 136 152
340 347 332 315 333 329 321 328 324 320 318 316 314 316 322 328 331 327 276 215 187 162 155 171 180 133 64 24 14 16 13 359 9 30 36 39 48 50 54 56 37 31 53 37
30 346 325 308 319 313 309 316 318 320 322 321 315 314 320 328 333 331 295 221 195 182 173 178 195 232 275 333 1 32 47 359 360 29 37 42 57 68 74 88 82 50 54 58